{"data":{"norad_id":54206,"intl_designator":"2022-141BB","name":"STARLINK-5264","alt_names":[],"object_type":"PAYLOAD","status":"ACTIVE","operator":null,"country":"US","launch_date":"2022-10-28","launch_site_code":"AFWTR","launch_vehicle":null,"mission":null,"orbit_class":"UNKNOWN","rcs_meters":null,"size_class":null,"mass_kg":null,"dimensions":null,"purposes":["comms"],"wikipedia_slug":null,"has_3d_model":false,"image_url":null,"decayed_at":null,"tle_current":{"epoch":"2026-09-20T06:14:26.682720Z","epoch_age_seconds":110070,"freshness":"FRESH","line1":"1 54206U 22141BB  26263.26003105  .00001309  00000+0  48438-4 0  9996","line2":"2 54206  53.1587 155.0783 0001234  83.5025 276.6119 15.35399636216001","mean_motion":15.35399636,"eccentricity":0.0001234,"inclination_deg":53.1587,"raan_deg":155.0783,"arg_perigee_deg":83.5025,"mean_anomaly_deg":276.6119,"bstar":4.8438e-5,"rev_number":21600,"period_min":93.786657638624,"perigee_km":458.88993020462,"apogee_km":460.57751669917,"semimajor_km":6837.8707234519,"source":"CELESTRAK","updated_at":"2026-09-21T09:00:33.118227Z"}}}